Grand Marais, MN

9:12 PM CST on November 23, 2017 (GMT -0600)
Grand Marais

Weather History for KGNA - November, 2012

Change the Weather History Date:

Sunday, November 18, 2012

  Actual Average (KCKC) Record (KCKC)
Temperature  
Mean Temperature 41 °F -  
Max Temperature 46 °F 30 °F 51 °F (2001)
Min Temperature 35 °F 19 °F 1 °F (2014)
Degree Days  
Heating Degree Days 24    
Moisture  
Dew Point 37 °F    
Average Humidity 83    
Maximum Humidity 96    
Minimum Humidity 68    
Precipitation  
Precipitation 0.20 in - - ()
Sea Level Pressure  
Sea Level Pressure 30.20 in    
Wind  
Wind Speed 2 mph (NE)    
Max Wind Speed 7 mph    
Max Gust Speed -    
Averages and records for this station are not official NWS values.
T = Trace of Precipitation, MM = Missing Value Source: NWS Daily Summary

Daily Weather History Graph

Daily Weather History Graph

Search for Another Location

Airport or City:

Trip Planner

Search our weather history database for the weather conditions in past years. The results will help you decide how hot, cold, wet, or windy it might be!

Date:

Astronomy

Nov. 18, 2012 Rise Set
Actual Time 7:12 AM CST 4:20 PM CST
Civil Twilight 6:38 AM CST 4:54 PM CST
Nautical Twilight 6:00 AM CST 5:32 PM CST
Astronomical Twilight 5:23 AM CST 6:09 PM CST
Moon 11:34 AM CST (11/18) 9:46 PM CST (11/18)
Length of Visible Light 10h 16m
Length of Day
9h 08m
Waxing Crescent, 30% of the Moon is Illuminated
Nov 18
Waxing Crescent
Nov 20
First Quarter
Nov 28
Full
Dec 6
Last Quarter
Dec 13
New

Hourly Weather History & Observations

Time (CST) Temp. Windchill Dew Point Humidity Pressure Visibility Wind Dir Wind Speed Gust Speed Precip Events Conditions
12:56 AM 41.0 °F - 37.0 °F 86% 30.28 in - Calm Calm - N/A   Unknown
1:56 AM 39.9 °F - 37.0 °F 89% 30.28 in - Calm Calm - N/A   Unknown
2:56 AM 42.1 °F - 41.0 °F 96% 30.27 in - Calm Calm - 0.08 in   Unknown
3:56 AM 43.0 °F - 41.0 °F 93% 30.26 in - Calm Calm - 0.11 in   Unknown
4:56 AM 43.0 °F - 41.0 °F 93% 30.26 in - Calm Calm - 0.01 in   Unknown
5:56 AM 41.0 °F - 39.0 °F 93% 30.26 in - Calm Calm - N/A   Unknown
6:56 AM 39.0 °F - 36.0 °F 89% 30.25 in - Calm Calm - N/A   Unknown
7:56 AM 44.1 °F 42.5 °F 37.9 °F 79% 30.25 in - ESE 3.5 mph - N/A   Unknown
8:56 AM 43.0 °F 41.3 °F 39.9 °F 89% 30.25 in - ENE 3.5 mph - N/A   Unknown
9:56 AM 44.1 °F 42.5 °F 39.0 °F 82% 30.24 in - SE 3.5 mph - N/A   Unknown
10:56 AM 46.0 °F 44.8 °F 37.0 °F 71% 30.22 in - East 3.5 mph - N/A   Unknown
11:56 AM 46.0 °F 44.8 °F 37.0 °F 71% 30.21 in - NE 3.5 mph - N/A   Unknown
12:56 PM 45.0 °F 43.5 °F 37.0 °F 74% 30.19 in - NE 3.5 mph - N/A   Unknown
1:56 PM 45.0 °F 41.2 °F 37.9 °F 76% 30.17 in - ENE 6.9 mph - N/A   Unknown
2:56 PM 46.0 °F 42.5 °F 37.9 °F 73% 30.15 in - NE 6.9 mph - N/A   Unknown
3:56 PM 46.0 °F 43.9 °F 36.0 °F 68% 30.13 in - NE 4.6 mph - N/A   Unknown
4:56 PM 45.0 °F 43.5 °F 35.1 °F 68% 30.13 in - NNE 3.5 mph - N/A   Unknown
5:56 PM 42.1 °F 39.2 °F 35.1 °F 76% 30.14 in - NNE 4.6 mph - N/A   Unknown
6:56 PM 39.0 °F 36.8 °F 34.0 °F 82% 30.15 in - NNE 3.5 mph - N/A   Unknown
7:56 PM 37.0 °F 34.5 °F 33.1 °F 86% 30.15 in - North 3.5 mph - N/A   Unknown
8:56 PM 37.0 °F - 34.0 °F 89% 30.14 in - Calm Calm - N/A   Unknown
9:56 PM 36.0 °F - 33.1 °F 89% 30.13 in - Calm Calm - N/A   Unknown
10:56 PM 36.0 °F - 33.1 °F 89% 30.14 in - Calm Calm - N/A   Unknown
11:56 PM 35.1 °F - 32.0 °F 89% 30.14 in - Calm Calm - N/A   Unknown